Total_Precipitation_Accumulation
0.17 0.24 0.40 0.34 0.20 0.18 0.30 0.21 0.16 0.05 0.05 0.07 0.10 0.14 0.16 0.14 0.10 0.06 0.04 0.04 0.04 0.04 0.04 0.05 0.05 0.07 0.08 0.10 0.14 0.17 0.18 0.17 0.16 0.16 0.17 0.16 0.15 0.12 0.09 0.07 0.05 0.04 0.04 0.04
0.27 0.25 0.36 0.29 0.14 0.12 0.12 0.09 0.08 0.07 0.08 0.09 0.13 0.18 0.22 0.19 0.12 0.06 0.04 0.03 0.03 0.03 0.03 0.03 0.04 0.07 0.10 0.14 0.21 0.25 0.26 0.22 0.18 0.18 0.17 0.16 0.14 0.12 0.09 0.07 0.06 0.06 0.06 0.07
0.45 0.23 0.27 0.23 0.12 0.12 0.10 0.07 0.07 0.09 0.09 0.11 0.18 0.22 0.20 0.15 0.09 0.05 0.03 0.03 0.02 0.02 0.01 0.02 0.04 0.11 0.18 0.23 0.29 0.31 0.34 0.32 0.26 0.23 0.21 0.17 0.15 0.16 0.17 0.17 0.17 0.18 0.18 0.18
0.55 0.36 0.35 0.22 0.16 0.14 0.11 0.07 0.05 0.06 0.05 0.07 0.13 0.14 0.12 0.09 0.07 0.04 0.02 0.02 0.02 0.03 0.02 0.03 0.06 0.14 0.21 0.28 0.38 0.39 0.39 0.38 0.37 0.37 0.37 0.38 0.37 0.38 0.39 0.37 0.38 0.39 0.40 0.41
0.35 0.28 0.16 0.08 0.09 0.11 0.11 0.07 0.03 0.03 0.03 0.03 0.05 0.11 0.15 0.12 0.08 0.06 0.03 0.02 0.01 0.02 0.03 0.03 0.06 0.13 0.20 0.32 0.45 0.54 0.57 0.56 0.57 0.59 0.63 0.67 0.70 0.69 0.67 0.67 0.65 0.62 0.58 0.52
0.19 0.17 0.07 0.04 0.02 0.03 0.04 0.03 0.01 0.01 0.01 0.01 0.03 0.07 0.13 0.15 0.12 0.10 0.08 0.06 0.05 0.04 0.06 0.08 0.11 0.17 0.29 0.45 0.59 0.68 0.69 0.72 0.75 0.78 0.81 0.79 0.79 0.75 0.67 0.61 0.58 0.55 0.52 0.47
0.13 0.10 0.01 0.00 0.00 0.00 0.02 0.02 0.00 0.00 0.01 0.01 0.01 0.03 0.05 0.10 0.14 0.14 0.15 0.16 0.17 0.17 0.20 0.22 0.25 0.33 0.47 0.58 0.66 0.68 0.68 0.68 0.70 0.67 0.64 0.58 0.55 0.53 0.48 0.42 0.35 0.30 0.25 0.21
0.04 0.05 0.01 0.00 0.01 0.01 0.01 0.00 0.00 0.00 0.01 0.01 0.01 0.01 0.02 0.03 0.07 0.12 0.15 0.21 0.28 0.34 0.37 0.37 0.39 0.45 0.52 0.54 0.54 0.51 0.49 0.46 0.43 0.37 0.31 0.27 0.24 0.23 0.20 0.17 0.14 0.11 0.08 0.06
0.01 0.01 0.00 0.00 0.00 0.01 0.00 0.00 0.00 0.00 0.01 0.01 0.01 0.01 0.01 0.01 0.02 0.04 0.06 0.09 0.13 0.19 0.23 0.24 0.24 0.26 0.28 0.26 0.22 0.19 0.16 0.14 0.12 0.09 0.08 0.06 0.04 0.03 0.03 0.02 0.02 0.01 0.01 0.01
0.00 0.00 0.00 0.00 0.00 0.00 0.00 0.00 0.00 0.00 0.01 0.01 0.01 0.01 0.02 0.01 0.01 0.01 0.01 0.02 0.03 0.04 0.05 0.05 0.05 0.06 0.06 0.05 0.03 0.02 0.01 0.01 0.01 0.01 0.00 0.01 0.00 0.00 0.00 0.00 0.00 0.00 0.00 0.00
0.01 0.00 0.00 0.00 0.00 0.00 0.00 0.00 0.00 0.00 0.00 0.00 0.00 0.01 0.01 0.01 0.00 0.00 0.00 0.01 0.00 0.01 0.01 0.01 0.01 0.01 0.01 0.00 0.00 0.00 0.00 0.00 0.00 0.00 0.00 0.00 0.00 0.00 0.00 0.00 0.00 0.00 0.00 0.00
0.01 0.00 0.00 0.00 0.00 0.00 0.00 0.00 0.00 0.00 0.00 0.00 0.00 0.01 0.00 0.00 0.00 0.00 0.01 0.01 0.01 0.01 0.00 0.00 0.00 0.00 0.00 0.00 0.00 0.00 0.00 0.00 0.00 0.00 0.00 0.00 0.00 0.00 0.00 0.00 0.00 0.00 0.00 0.00
0.00 0.00 0.00 0.00 0.00 0.00 0.00 0.00 0.00 0.00 0.00 0.00 0.00 0.00 0.00 0.00 0.00 0.01 0.02 0.02 0.01 0.01 0.01 0.01 0.00 0.00 0.00 0.00 0.00 0.00 0.00 0.00 0.00 0.00 0.00 0.00 0.00 0.00 0.00 0.00 0.00 0.00 0.00 0.00
0.00 0.00 0.00 0.00 0.00 0.00 0.00 0.00 0.00 0.00 0.00 0.00 0.00 0.00 0.00 0.00 0.00 0.01 0.02 0.03 0.02 0.01 0.01 0.00 0.00 0.00 0.00 0.00 0.00 0.00 0.00 0.00 0.00 0.00 0.00 0.00 0.00 0.00 0.00 0.00 0.00 0.00 0.00 0.00
0.00 0.00 0.00 0.00 0.00 0.00 0.00 0.00 0.00 0.00 0.00 0.00 0.00 0.00 0.00 0.00 0.00 0.01 0.02 0.02 0.02 0.01 0.01 0.00 0.00 0.00 0.00 0.00 0.00 0.00 0.00 0.00 0.00 0.00 0.00 0.00 0.00 0.00 0.00 0.00 0.00 0.00 0.00 0.00
0.00 0.00 0.00 0.00 0.00 0.00 0.00 0.00 0.00 0.00 0.00 0.00 0.01 0.01 0.00 0.00 0.00 0.01 0.01 0.01 0.02 0.02 0.01 0.00 0.00 0.00 0.00 0.00 0.00 0.00 0.00 0.00 0.00 0.00 0.00 0.00 0.00 0.00 0.00 0.00 0.00 0.00 0.00 0.00
0.00 0.00 0.00 0.00 0.00 0.00 0.00 0.00 0.00 0.01 0.01 0.01 0.01 0.00 0.00 0.00 0.00 0.00 0.00 0.01 0.01 0.01 0.01 0.00 0.00 0.00 0.00 0.00 0.00 0.00 0.00 0.00 0.00 0.00 0.00 0.00 0.00 0.00 0.00 0.00 0.00 0.00 0.00 0.00
0.00 0.00 0.00 0.00 0.00 0.00 0.00 0.00 0.00 0.01 0.01 0.01 0.01 0.00 0.00 0.00 0.00 0.00 0.00 0.00 0.01 0.01 0.01 0.00 0.00 0.00 0.00 0.00 0.00 0.00 0.00 0.00 0.00 0.00 0.00 0.00 0.00 0.00 0.00 0.00 0.00 0.00 0.00 0.00
0.00 0.00 0.00 0.00 0.00 0.00 0.00 0.01 0.01 0.01 0.01 0.01 0.01 0.01 0.00 0.00 0.00 0.00 0.00 0.00 0.00 0.01 0.01 0.01 0.00 0.00 0.00 0.00 0.00 0.00 0.00 0.00 0.00 0.00 0.00 0.00 0.00 0.00 0.00 0.00 0.00 0.00 0.00 0.00
0.01 0.02 0.02 0.02 0.02 0.02 0.02 0.02 0.02 0.03 0.03 0.03 0.02 0.02 0.01 0.01 0.01 0.01 0.00 0.00 0.01 0.01 0.01 0.01 0.00 0.00 0.00 0.00 0.00 0.00 0.00 0.00 0.00 0.00 0.00 0.00 0.00 0.00 0.00 0.00 0.00 0.00 0.00 0.00
0.04 0.05 0.05 0.06 0.07 0.06 0.05 0.05 0.05 0.05 0.06 0.06 0.05 0.04 0.03 0.03 0.02 0.01 0.01 0.01 0.01 0.01 0.01 0.01 0.00 0.00 0.00 0.00 0.00 0.00 0.00 0.00 0.00 0.00 0.00 0.00 0.00 0.00 0.00 0.00 0.00 0.00 0.00 0.00
0.05 0.07 0.08 0.09 0.10 0.11 0.10 0.08 0.07 0.08 0.08 0.08 0.08 0.07 0.05 0.05 0.03 0.03 0.02 0.02 0.01 0.01 0.01 0.01 0.00 0.00 0.00 0.00 0.00 0.00 0.00 0.00 0.00 0.00 0.00 0.00 0.00 0.00 0.00 0.00 0.00 0.00 0.00 0.00
0.04 0.05 0.06 0.07 0.08 0.08 0.08 0.08 0.08 0.08 0.09 0.09 0.09 0.08 0.07 0.06 0.05 0.04 0.03 0.03 0.02 0.01 0.01 0.01 0.00 0.00 0.00 0.00 0.00 0.00 0.00 0.00 0.00 0.00 0.00 0.00 0.00 0.00 0.00 0.00 0.00 0.00 0.00 0.00
0.00 0.01 0.02 0.03 0.03 0.04 0.05 0.06 0.07 0.08 0.09 0.09 0.08 0.07 0.06 0.05 0.05 0.04 0.03 0.03 0.02 0.02 0.01 0.01 0.00 0.00 0.00 0.00 0.00 0.00 0.00 0.00 0.00 0.00 0.00 0.00 0.00 0.00 0.00 0.00 0.00 0.00 0.00 0.00
0.00 0.00 0.00 0.00 0.01 0.01 0.02 0.02 0.03 0.05 0.07 0.08 0.07 0.06 0.06 0.05 0.05 0.05 0.04 0.03 0.02 0.02 0.02 0.01 0.01 0.00 0.00 0.00 0.00 0.00 0.00 0.00 0.00 0.00 0.00 0.00 0.00 0.00 0.00 0.00 0.00 0.00 0.00 0.00
0.00 0.00 0.00 0.00 0.00 0.00 0.01 0.01 0.01 0.02 0.04 0.05 0.06 0.06 0.07 0.07 0.06 0.05 0.05 0.04 0.03 0.03 0.02 0.02 0.01 0.01 0.00 0.00 0.00 0.00 0.00 0.00 0.00 0.00 0.00 0.00 0.00 0.00 0.00 0.00 0.00 0.00 0.01 0.01
0.00 0.00 0.00 0.00 0.00 0.00 0.00 0.00 0.01 0.01 0.02 0.02 0.04 0.06 0.06 0.07 0.06 0.05 0.04 0.04 0.04 0.04 0.03 0.02 0.01 0.01 0.01 0.01 0.00 0.00 0.00 0.00 0.00 0.00 0.00 0.00 0.00 0.00 0.00 0.00 0.00 0.01 0.01 0.01